Lexington Weather

Lexington, Massachusetts, USA

70°F
8/17/2022 6:54pm 
  • Lexington Conditions: Overcast
  • Temperature: 69.6°F / 20.9°CColder 0.6°F than last hour.
  • Dew Point: 57.4°FDecreased 1.8°Fsince last hour.
  • Relative Humidity: 65%Decreased 3.0% since last hour.
  • Wind: Calm, 10-min avg: Calm, gust: 3 mph
  • Barometer: 29.85 in Steady
  • Visibility: 10 miles
  • Rain Today: 0.00 in
  •   

Regional Weather Roundup
for Boston, MA

        
000
ASUS41 KBOX 161710
RWRBOX

REGIONAL WEATHER ROUNDUP
NATIONAL WEATHER SERVICE BOSTON/NORTON MA
100 PM EDT TUE AUG 16 2022

NOTE:  "FAIR" INDICATES FEW OR NO CLOUDS BELOW 12,000 FEET WITH NO 
SIGNIFICANT WEATHER AND/OR OBSTRUCTIONS TO VISIBILITY.

MAZALL-161800-
EASTERN MASSACHUSETTS
  
CITY           SKY/WX    TMP DP  RH WIND       PRES   REMARKS
BOSTON         PTSUNNY   76  61  59 E13       30.06S                  
BEVERLY        MOSUNNY   78  57  48 E9        30.06F                  
LAWRENCE       SUNNY     81  52  36 NE16G22   30.08F                  
BEDFORD        MOSUNNY   82  56  40 NE13G23   30.04F                  
BLUE HILL      NOT AVBL                                               
NORWOOD        MOSUNNY   80  57  45 NE13G21   30.05S                  
MARSHFIELD     PTSUNNY   72  64  78 N8G17     30.05S                  
PLYMOUTH       CLOUDY    72  64  76 N14       30.05S                  
TAUNTON          N/A    N/A N/A N/A MISG      30.03S                  
NEW BEDFORD    CLOUDY    78  59  51 NE14G21   30.02S                  
$$

MAZALL-161800-
CAPE COD AND THE ISLANDS
  
CITY           SKY/WX    TMP DP  RH WIND       PRES   REMARKS
FALMOUTH       MOSUNNY   73  63  68 NE12      30.02F                  
HYANNIS        CLOUDY    77  61  57 N14G21    30.00F                  
CHATHAM        CLOUDY    74  61  63 NE13      30.03R                  
NANTUCKET      CLOUDY    74  63  68 NE15G24   30.00S                  
MARTHAS VNYRD  CLOUDY    77  61  57 NE14G21   30.01S                  
$$
 
MAZALL-161800-
CENTRAL AND WESTERN MASSACHUSETTS
  
CITY           SKY/WX    TMP DP  RH WIND       PRES   REMARKS
WORCESTER      MOSUNNY   77  51  40 NE10G18   30.07F                  
FITCHBURG      MOSUNNY   81  49  32 NE9G21    30.07F                  
ORANGE         SUNNY     82  48  30 E10G16    30.07F                  
SPRINGFIELD    PTSUNNY   82  45  26 NE14      30.02F                  
WESTFIELD      SUNNY     84  47  27 NE8G21    30.04F                  
NORTH ADAMS    SUNNY     80  49  33 E9        30.07F                  
PITTSFIELD     SUNNY     81  48  31 MISG      30.07F                  
$$
 
RIZALL-161800-
RHODE ISLAND
  
CITY           SKY/WX    TMP DP  RH WIND       PRES   REMARKS
PROVIDENCE     PTSUNNY   81  56  42 NE15      30.03S                  
NEWPORT        PTSUNNY   77  56  48 NE14G21   30.02S                  
BLOCK ISLAND   CLOUDY    74  57  55 NE14      30.02F                  
SMITHFIELD     PTSUNNY   80  55  42 MISG      30.04F                  
WESTERLY       PTSUNNY   80  57  45 NE13G22   30.01F                  
$$
 
CTZALL-161800-
CONNECTICUT
  
CITY           SKY/WX    TMP DP  RH WIND       PRES   REMARKS
BRADLEY INTL   PTSUNNY   83  50  31 NE14G20   30.04F                  
HARTFORD       MOSUNNY   85  50  29 NE3       30.02F                  
BRIDGEPORT     MOSUNNY   78  57  48 SE8       30.02F                  
DANBURY        SUNNY     83  50  31 E8G21     30.05F                  
GROTON         PTSUNNY   84  55  36 NE14G23   30.00F                  
NEW HAVEN      PTSUNNY   81  59  47 S10       30.02F                  
CHESTER        PTSUNNY   81  52  36 N10       30.03F                  
MERIDEN        MOSUNNY   84  51  31 VRB3      30.02F                  
WILLIMANTIC    MOSUNNY   82  50  32 NE13G20   30.02F                  
OXFORD         MOSUNNY   78  53  41 VRB3      30.06F                  
$$

MEZ002-015-021-024-NHZ003-005-008-011-012-014-VTZ005-008-161800-
NORTHERN NEW ENGLAND
  
CITY           SKY/WX    TMP DP  RH WIND       PRES   REMARKS
PORTLAND ME    MOSUNNY   79  49  34 E14       30.09F                  
BANGOR ME      PTSUNNY   85  56  37 NE12      30.09F                  
CONCORD NH     PTSUNNY   83  52  34 E15G21    30.08S                  
MANCHESTER NH  PTSUNNY   83  49  30 E8G17     30.06S                  
NASHUA NH      CLOUDY    82  52  35 NE12G17   30.07F                  
PORTSMOUTH NH  PTSUNNY   79  44  28 NE16      30.08S                  
JAFFREY NH     MOSUNNY   80  49  33 MISG      30.10S                  
KEENE NH       SUNNY     79  54  41 N12         N/A                   
BURLINGTON VT  PTSUNNY   82  61  48 NW8       30.09F                  
MT. WASHINGTON PTSUNNY   50  48  93 E23         N/A                   
$$

NYZ052-076-161800-
EASTERN NEW YORK
  
CITY           SKY/WX    TMP DP  RH WIND       PRES   REMARKS
ALBANY         PTSUNNY   82  55  39 CALM      30.06F                  
NEW YORK CITY  PTSUNNY   79  56  45 NE14      30.02F                  
$$
 
ANZALL-161800-
MARINE OBSERVATIONS
  
STATION/POSITION TIME  TEMP    WIND        PRES    VSBY  WAVE
                       AIR SEA DIR/SP/G                  HT/PER
                 (UTC) (F)     (DEG/KT/KT) (MB)    (MI)  (FT/S)
BOSTON BUOY      NOT AVBL
BUZZARDS BAY     NOT AVBL
NANTUCKET SOUND  NOT AVBL
MASS BAY-STELLWA NOT AVBL
ISLE OF SHOALS   NOT AVBL
S OF BLOCK IS    NOT AVBL
$$

......................KEY.........................
  SKY/WX - SKY CONDITION/PRESENT WEATHER
  TMP    - TEMPERATURE IN FAHRENHEIT
  DWPT   - DEWPOINT IN FAHRENHEIT
  RH     - RELATIVE HUMIDITY IN PERCENT
  WIND   - DIRECTION AND SPEED IN MPH
  PRES   - MEAN SEA LEVEL PRESSURE IN INCHES OF HG
  WCI    - WIND CHILL INDEX
  VSB    - VISIBILITY IN MILES
  HX     - HEAT INDEX
  TC     - TEMPERATURE IN CELSIUS
  VRB    - VARIABLE WIND DIRECTION
  N/A    - NOT AVAILABLE
  
      

Other recent Regional Weather Roundups

Wed Aug 17, 6:10pm

Wed Aug 17, 5:10pm

Wed Aug 17, 4:10pm

Wed Aug 17, 3:10pm

Wed Aug 17, 2:10pm

Wed Aug 17, 1:10pm

Wed Aug 17, 12:10pm

Wed Aug 17, 11:10am

Wed Aug 17, 10:10am

Wed Aug 17, 9:10am

Wed Aug 17, 8:10am

Wed Aug 17, 7:10am

Wed Aug 17, 6:10am

Wed Aug 17, 5:10am

Wed Aug 17, 4:10am

Wed Aug 17, 3:10am

Wed Aug 17, 2:10am

Wed Aug 17, 1:10am

Wed Aug 17, 12:10am

Tue Aug 16, 11:10pm

Tue Aug 16, 10:10pm

Tue Aug 16, 9:10pm

Tue Aug 16, 8:10pm

Tue Aug 16, 7:10pm

Tue Aug 16, 6:10pm

Tue Aug 16, 5:10pm

Tue Aug 16, 4:10pm

Tue Aug 16, 3:10pm

Tue Aug 16, 2:10pm

Tue Aug 16, 12:10pm

Tue Aug 16, 11:10am

Tue Aug 16, 10:10am

Tue Aug 16, 9:10am

Tue Aug 16, 8:10am

Tue Aug 16, 7:10am

Tue Aug 16, 6:10am

Tue Aug 16, 5:10am

Tue Aug 16, 4:10am

Tue Aug 16, 3:10am

Tue Aug 16, 2:10am

Tue Aug 16, 1:10am

Tue Aug 16, 12:10am

Mon Aug 15, 11:10pm

Mon Aug 15, 10:10pm

Mon Aug 15, 9:10pm

Mon Aug 15, 8:10pm

Mon Aug 15, 7:10pm

Mon Aug 15, 6:10pm

Mon Aug 15, 5:10pm

Mon Aug 15, 4:10pm

Mon Aug 15, 3:10pm

Mon Aug 15, 2:10pm

Mon Aug 15, 1:10pm

Mon Aug 15, 12:10pm

Mon Aug 15, 11:10am

Mon Aug 15, 10:10am

Mon Aug 15, 9:10am

Mon Aug 15, 8:10am

Mon Aug 15, 7:10am

Mon Aug 15, 6:10am

Mon Aug 15, 5:10am

Mon Aug 15, 4:10am

Mon Aug 15, 3:10am

Mon Aug 15, 2:10am

Mon Aug 15, 1:10am

Mon Aug 15, 12:10am

Sun Aug 14, 11:10pm

Sun Aug 14, 10:10pm

Sun Aug 14, 9:10pm

Sun Aug 14, 8:10pm

Sun Aug 14, 7:10pm

Sun Aug 14, 6:10pm

Sun Aug 14, 5:10pm

Sun Aug 14, 4:10pm

Sun Aug 14, 3:10pm

Sun Aug 14, 2:10pm

Sun Aug 14, 1:10pm

Sun Aug 14, 12:10pm

Sun Aug 14, 11:10am

Sun Aug 14, 10:10am

Sun Aug 14, 9:10am

Sun Aug 14, 8:10am

Sun Aug 14, 7:10am

Sun Aug 14, 6:10am

Sun Aug 14, 5:10am

Sun Aug 14, 4:10am

Sun Aug 14, 3:10am

Sun Aug 14, 2:10am

Sun Aug 14, 1:10am

Sun Aug 14, 12:10am

Sat Aug 13, 11:10pm

Sat Aug 13, 10:10pm

Sat Aug 13, 9:10pm

Sat Aug 13, 8:10pm

Sat Aug 13, 7:10pm

Sat Aug 13, 6:10pm

Sat Aug 13, 5:10pm

Sat Aug 13, 4:10pm

Sat Aug 13, 3:10pm

Sat Aug 13, 2:10pm

Sat Aug 13, 1:10pm

Sat Aug 13, 12:10pm

Sat Aug 13, 11:10am

Sat Aug 13, 10:10am

Sat Aug 13, 9:10am

Sat Aug 13, 8:10am

Sat Aug 13, 7:10am

Sat Aug 13, 6:10am

Sat Aug 13, 5:10am

Sat Aug 13, 4:10am

Sat Aug 13, 3:10am

Sat Aug 13, 2:10am

Sat Aug 13, 1:10am

Sat Aug 13, 12:10am

Fri Aug 12, 11:10pm

Fri Aug 12, 10:10pm

Fri Aug 12, 9:10pm

Fri Aug 12, 8:10pm

Fri Aug 12, 7:10pm

Fri Aug 12, 6:10pm

Fri Aug 12, 5:10pm

Fri Aug 12, 4:10pm

Fri Aug 12, 3:10pm

Fri Aug 12, 2:10pm

Fri Aug 12, 1:10pm

Fri Aug 12, 12:10pm

Fri Aug 12, 11:10am

Fri Aug 12, 10:10am

Fri Aug 12, 9:10am

Fri Aug 12, 8:10am

Fri Aug 12, 7:10am

Fri Aug 12, 6:10am

Fri Aug 12, 5:10am

Fri Aug 12, 4:10am

Fri Aug 12, 3:10am

Fri Aug 12, 2:10am

Fri Aug 12, 1:10am

Fri Aug 12, 12:10am

Thu Aug 11, 11:10pm

Thu Aug 11, 10:10pm

Thu Aug 11, 9:10pm

Thu Aug 11, 8:10pm

Thu Aug 11, 7:10pm

Thu Aug 11, 6:10pm

Thu Aug 11, 5:10pm

Thu Aug 11, 4:10pm

Thu Aug 11, 3:10pm

Thu Aug 11, 2:10pm

Thu Aug 11, 1:10pm

Thu Aug 11, 12:10pm

Thu Aug 11, 11:10am

Thu Aug 11, 10:10am

Thu Aug 11, 9:10am

Thu Aug 11, 8:10am

Thu Aug 11, 7:10am

Thu Aug 11, 6:10am

Thu Aug 11, 5:10am

Thu Aug 11, 4:10am

Thu Aug 11, 3:10am

Thu Aug 11, 2:10am

Thu Aug 11, 1:10am

Thu Aug 11, 12:10am

Wed Aug 10, 11:10pm

Wed Aug 10, 10:10pm

Wed Aug 10, 9:10pm

Wed Aug 10, 8:10pm

Wed Aug 10, 7:10pm

Meta data:

ID: 470f0bd2-017f-477f-ab66-6d6faa3f835e
Link: https://api.weather.gov/products/470f0bd2-017f-477f-ab66-6d6faa3f835e